[[{"header":{"parameterUnit":"m.s-1","parameterCategory":2,"la1":30.2991,"la2":30.254,"lo1":-89.0895,"lo2":-89.0444,"dy":0.0017,"dx":0.0017,"nx":28,"ny":28,"refTime":"2024-07-09T09:00:00:Z","depth":"0","parameterNumber":2,"parameterNumberName":"U-component_of_CURRENTS"},"data":[0,0,0,0,0,0,0,0,0,0,0,0,0,0,0,0,0,0,0,0,0,0,0,0,0,0,0,0,0,0,0,0,0,0,0,0,0,0,0,0,0,0,0,0,0,0,0,0,0,0,0,0,0,0,0,0,0,0,0.2938,0.2938,0,0.29,0.2899,0.2899,0.2855,0.2854,0.2854,0.2854,0.2844,0.2844,0.2844,0,0,0,0,0,0,0,0,0,0,0,0,0,0.293,0.2931,0.2938,0.2938,0.2938,0.29,0.2899,0.2898,0.2855,0.2854,0.2854,0.2854,0.2844,0.2844,0.2844,0,0,0,0,0,0,0,0,0,0,0,0,0,0.2913,0.2931,0.2938,0.2915,0.2913,0.2901,0.2899,0.2898,0.2855,0.2854,0.2854,0.2853,0.2844,0.2844,0.2844,0.2853,0,0,0.2844,0.2844,0,0,0,0,0,0,0,0,0.2914,0.2913,0.2918,0.2916,0.2914,0.2885,0.2893,0.2886,0.2855,0.2872,0.2854,0.2853,0.2864,0.2862,0.2849,0.2852,0.2852,0.2844,0.2844,0.2844,0.2844,0,0,0,0,0,0,0,0.2916,0.2914,0.2919,0.2918,0.2916,0.2892,0.2889,0.2891,0.2868,0.2871,0.2868,0.2871,0.2862,0.2849,0.2849,0.2852,0.2844,0.2844,0.2844,0.2844,0.2947,0.295,0,0,0,0,0,0,0.2932,0.2916,0.292,0.2918,0.2918,0.2893,0.2889,0.2892,0.2867,0.2864,0.2871,0.2869,0.285,0.2849,0.2849,0.2951,0.2844,0.2844,0.2844,0.2945,0.2948,0.2951,0,0,0,0,0,0,0.2932,0.2932,0.2922,0.2919,0.2917,0.2894,0.2897,0.2891,0.2891,0.2868,0.2865,0.288,0.2849,0.2849,0.2866,0.2947,0.2844,0.2844,0.2942,0.2946,0.295,0.3097,0,0,0,0,0,0,0.2932,0.2933,0.2944,0.2921,0.2918,0.2937,0.2897,0.2891,0.2895,0.2892,0.2874,0.2872,0.2849,0.2866,0.2866,0.2945,0.2844,0.2938,0.2943,0.2948,0.3088,0.3105,0.312,0,0,0,0,0,0.2931,0.295,0.2945,0.2946,0.2933,0.2939,0.2936,0.2914,0.2896,0.2909,0.2893,0.2873,0.29,0.2868,0.2867,0.2948,0.2936,0.2942,0.2948,0.3081,0.3102,0.312,0,0,0,0,0,0,0.2944,0.2947,0.2941,0.2957,0.296,0.2934,0.2944,0.2928,0.2923,0.2923,0.2891,0.2888,0.2945,0.2917,0.2882,0.2993,0.2922,0.2929,0.3024,0.3043,0.3059,0.3097,0.2844,0,0,0,0,0,0.2956,0.2973,0.297,0.2983,0.2992,0.2971,0.2972,0.2962,0.2952,0.2949,0.2933,0.2935,0.2969,0.2978,0.2989,0.3034,0.306,0.3091,0.3107,0.312,0.3151,0.326,0.3289,0.2971,0.2971,0.2971,0,0,0.296,0.2967,0.2973,0.2988,0.2985,0.3015,0.297,0.2986,0.3019,0.2952,0.2987,0.2987,0.2992,0.3053,0.3078,0.304,0.3225,0.3128,0.314,0.3164,0.3269,0.3301,0.3329,0.2975,0.2975,0.2974,0,0,0.2994,0.2991,0.3028,0.3038,0.3057,0.3051,0.3065,0.3057,0.3068,0.309,0.3081,0.3129,0.3126,0.3178,0.3198,0.3306,0.3307,0.3308,0.3419,0.3524,0.3552,0.3577,0.3656,0.3686,0.3314,0.3314,0.3315,0,0.3011,0.3054,0.3038,0.3079,0.3112,0.3078,0.3138,0.3138,0.3135,0.3178,0.3118,0.3207,0.32,0.3339,0.3374,0.335,0.3392,0.3347,0.3549,0.3573,0.3596,0.3671,0.3703,0.3322,0.3321,0.332,0.332,0,0.3067,0.3115,0.3138,0.3188,0.3213,0.3257,0.3269,0.3293,0.3289,0.3302,0.3409,0.3401,0.3464,0.3479,0.3453,0.3635,0.3608,0.356,0.3505,0.3638,0.3707,0.3738,0.3333,0.3331,0.3328,0.3326,0,0,0.3105,0.3174,0.3187,0.3245,0.3288,0.3317,0.3387,0.3468,0.3534,0.3533,0.3649,0.3706,0.3707,0.3733,0.3733,0.3815,0.4002,0.376,0.3762,0.3848,0.4233,0.4141,0.4164,0.3992,0.3998,0.4003,0.4218,0,0.318,0.3285,0.3303,0.3416,0.3487,0.3498,0.3568,0.3626,0.3658,0.3742,0.3791,0.3875,0.3805,0.3852,0.3934,0.3984,0.4089,0.3948,0.4084,0.4089,0.3999,0.42,0.4013,0.4184,0.4248,0.4253,0.4257,0,0.326,0.3325,0.3452,0.3572,0.3604,0.3655,0.3786,0.3843,0.3947,0.3975,0.4069,0.408,0.4227,0.4123,0.4314,0.4225,0.4262,0.4281,0.4288,0.4176,0.4055,0.4061,0.4237,0.425,0.4303,0.43,0.4296,0,0.3321,0.3448,0.356,0.3593,0.3698,0.3772,0.3831,0.3929,0.3983,0.414,0.4189,0.4338,0.4405,0.4495,0.4508,0.444,0.469,0.4596,0.4561,0.4553,0.441,0.4379,0.4622,0.4771,0.4771,0.477,0.477,0,0.3417,0.3515,0.3595,0.3646,0.3773,0.3842,0.3963,0.4038,0.4144,0.4218,0.4318,0.4397,0.45,0.461,0.4624,0.4697,0.4796,0.4647,0.4634,0.4452,0.4423,0.4432,0.4404,0.4778,0.4776,0.4775,0.4774,0,0.348,0.354,0.3657,0.3766,0.3801,0.389,0.3981,0.4039,0.4171,0.4277,0.4332,0.4487,0.4623,0.4709,0.4861,0.4834,0.4811,0.4914,0.4679,0.4634,0.4555,0.4538,0.4475,0.4378,0.4929,0.4929,0.4928,0,0.3526,0.3588,0.3687,0.3718,0.3769,0.3874,0.3909,0.4032,0.4077,0.4296,0.4338,0.4534,0.4603,0.4815,0.4818,0.4895,0.4799,0.4796,0.4631,0.46,0.4574,0.4323,0.4228,0.4508,0.4504,0.4501,0.4498,0,0.3578,0.3597,0.3656,0.3687,0.3737,0.3796,0.3871,0.3905,0.4045,0.4124,0.4237,0.4335,0.4538,0.4546,0.4694,0.4696,0.46,0.473,0.4784,0.4366,0.4025,0.3905,0.4307,0.447,0.4473,0.4475,0.4476,0.4478,0.3575,0.359,0.3596,0.3639,0.3663,0.3677,0.3672,0.3729,0.3771,0.3833,0.4021,0.4095,0.4327,0.4464,0.4452,0.445,0.4368,0.4397,0.4414,0.419,0.399,0.4322,0.4398,0.4401,0.4403,0.4404,0.4406,0,0.3486,0.3496,0.3525,0.3524,0.3471,0.3542,0.3575,0.3511,0.3466,0.3617,0.3642,0.3855,0.3958,0.4143,0.4277,0.4215,0.3949,0.4182,0.385,0.3802,0.4219,0.4099,0.4007,0.4007,0.4007,0.4007,0.4007,0.4007,0.3441,0.3404,0.3408,0.3306,0.3292,0.3168,0.3157,0.309,0.3147,0.3157,0.3262,0.3405,0.3887,0.4196,0.4247,0.4138,0.393,0.3693,0.377,0.4167,0.4189,0.4209,0.4098,0.4007,0.4007,0.3143,0.3137,0.3133]},{"header":{"parameterUnit":"m.s-1","parameterCategory":2,"la1":30.2991,"la2":30.254,"lo1":-89.0895,"lo2":-89.0444,"dy":0.0017,"dx":0.0017,"nx":28,"ny":28,"refTime":"2024-07-09T09:00:00:Z","depth":"0","parameterNumber":3,"parameterNumberName":"V-component_of_CURRENTS"},"data":[0,0,0,0,0,0,0,0,0,0,0,0,0,0,0,0,0,0,0,0,0,0,0,0,0,0,0,0,0,0,0,0,0,0,0,0,0,0,0,0,0,0,0,0,0,0,0,0,0,0,0,0,0,0,0,0,0,0,0.0228,0.0228,0,0.0127,0.0126,0.0124,0.0059,0.0059,0.0059,0.0059,-0.003,-0.0033,-0.0035,0,0,0,0,0,0,0,0,0,0,0,0,0,0.0257,0.0257,0.0228,0.0227,0.0227,0.0127,0.0126,0.0124,0.0059,0.0059,0.0059,0.0059,-0.0029,-0.0032,-0.0035,0,0,0,0,0,0,0,0,0,0,0,0,0,0.0205,0.0257,0.0228,0.0185,0.0181,0.0128,0.0126,0.0123,0.0059,0.0059,0.0059,0.0059,-0.0029,-0.0032,-0.0036,-0.0057,0,0,-0.0046,-0.0048,0,0,0,0,0,0,0,0,0.0208,0.0204,0.0193,0.0188,0.0183,0.011,0.0103,0.0065,0.0059,0.0101,0.0059,0.0059,0.002,0.0013,-0.0012,-0.0061,-0.0065,-0.0047,-0.0049,-0.005,-0.0051,0,0,0,0,0,0,0,0.0212,0.0207,0.0184,0.0192,0.0186,0.0134,0.0128,0.0095,0.0059,0.0097,0.0093,0.0089,0.0017,-0.0009,-0.0015,-0.0067,-0.0047,-0.005,-0.0052,-0.0053,-0.0096,-0.0095,0,0,0,0,0,0,0.0239,0.0211,0.0187,0.0181,0.0201,0.0135,0.0127,0.013,0.0059,0.0049,0.0089,0.0086,-0.0003,-0.0011,-0.0018,0.0004,-0.005,-0.0054,-0.0056,-0.0097,-0.0096,-0.0095,0,0,0,0,0,0,0.024,0.0238,0.0191,0.0197,0.0188,0.0136,0.0138,0.0128,0.0107,0.0053,0.0043,0.0081,-0.0003,-0.0013,-0.0042,-0.0002,-0.0055,-0.0059,-0.0098,-0.0097,-0.0095,0.0015,0,0,0,0,0,0,0.0242,0.0239,0.0245,0.0199,0.0189,0.017,0.0139,0.0126,0.0106,0.0102,0.0043,0.0034,-0.0004,-0.0036,-0.0045,-0.0008,-0.0061,-0.01,-0.0098,-0.0096,0.001,0.002,0.0028,0,0,0,0,0,0.0243,0.0261,0.0246,0.0243,0.0201,0.0171,0.016,0.0119,0.0107,0.0099,0.006,0.0036,-0.003,-0.0039,-0.005,-0.0012,-0.01,-0.0098,-0.0096,0.0006,0.0018,0.0028,0,0,0,0,0,0,0.0273,0.0255,0.0238,0.0248,0.0215,0.0161,0.0156,0.0127,0.0088,0.0088,0.0035,0.0023,0.0015,-0.0019,-0.0027,-0.0019,-0.0064,-0.0064,0.0017,0.0028,0.0037,0.008,-0.0064,0,0,0,0,0,0.0285,0.0296,0.0259,0.0265,0.0257,0.0207,0.0189,0.0162,0.0125,0.0107,0.0067,0.0034,0.0014,0.0005,-0.003,-0.003,-0.0066,-0.001,-0.0,0.0008,0.0035,0.0004,0.0013,-0.0087,-0.0087,-0.0088,0,0,0.0299,0.029,0.0294,0.0272,0.0245,0.0242,0.0195,0.0179,0.0184,0.0105,0.0099,0.0057,0.0017,0.0016,0.0012,-0.0004,0.0014,0.0011,0.0018,0.0042,0.0007,0.0017,0.0026,-0.0086,-0.0086,-0.0086,0,0,0.0336,0.0325,0.0346,0.0324,0.0297,0.027,0.0273,0.0226,0.0215,0.0194,0.0153,0.0137,0.0089,0.0081,0.007,0.0111,0.0056,0.0101,0.0193,0.0162,0.017,0.0177,0.013,0.0132,0.0115,0.0116,0.0116,0,0.0347,0.0377,0.0343,0.0352,0.0354,0.0294,0.0316,0.029,0.0239,0.0255,0.0209,0.0177,0.0129,0.0165,0.0175,0.0136,0.0099,0.0155,0.0175,0.0182,0.0187,0.0137,0.0138,0.0121,0.0121,0.012,0.012,0,0.0394,0.0416,0.0427,0.0429,0.0421,0.0428,0.04,0.0398,0.0376,0.0356,0.037,0.0302,0.0296,0.0277,0.0234,0.027,0.0222,0.0183,0.0152,0.0204,0.0147,0.0146,0.0129,0.0127,0.0126,0.0124,0,0,0.0419,0.0458,0.0459,0.0495,0.047,0.0478,0.05,0.0519,0.0562,0.0504,0.056,0.051,0.0479,0.0465,0.0415,0.0389,0.0373,0.0312,0.0308,0.0275,0.0292,0.0264,0.0258,0.0333,0.0334,0.0334,0.0232,0,0.0466,0.0534,0.0531,0.0594,0.0634,0.0609,0.0647,0.0653,0.0644,0.0672,0.0631,0.0643,0.0551,0.0556,0.0517,0.0415,0.0378,0.0404,0.0239,0.0235,0.0211,0.026,0.0269,0.0181,0.023,0.023,0.023,0,0.0507,0.0559,0.0645,0.0728,0.0744,0.077,0.0845,0.0869,0.0889,0.0886,0.0886,0.0832,0.0811,0.0709,0.0576,0.0594,0.046,0.0364,0.0357,0.03,0.0206,0.0138,0.0176,0.0018,0.0227,0.0227,0.0228,0,0.0563,0.0638,0.073,0.0745,0.0817,0.0871,0.091,0.0944,0.1002,0.1027,0.1063,0.1004,0.0989,0.0833,0.0628,0.06,0.046,0.039,0.0239,0.0233,0.0197,0.0189,0.0078,0.0292,0.0292,0.0292,0.0293,0,0.0622,0.069,0.0772,0.0818,0.0936,0.0962,0.1078,0.1105,0.1174,0.127,0.1187,0.1236,0.1017,0.0906,0.0693,0.0478,0.0505,0.0276,0.022,0.0233,0.0229,0.0053,-0.0066,0.0288,0.0289,0.029,0.0291,0,0.0666,0.0718,0.0823,0.0928,0.0966,0.1051,0.1173,0.1263,0.1316,0.1439,0.146,0.1409,0.1265,0.1027,0.077,0.0577,0.0247,0.0266,0.0292,0.0242,-0.0044,-0.0158,-0.0346,-0.0451,0.0091,0.009,0.0089,0,0.0706,0.077,0.0887,0.0952,0.1004,0.1127,0.1221,0.1316,0.1425,0.1552,0.1632,0.1542,0.1502,0.1121,0.075,0.0392,0.0199,0.0172,0.0124,-0.0032,-0.0202,-0.0275,-0.0356,0.01,0.01,0.0099,0.0099,0,0.0786,0.0817,0.0897,0.1014,0.1124,0.1262,0.1413,0.1523,0.1672,0.1784,0.1906,0.189,0.154,0.1207,0.0728,0.0456,0.0051,0.0148,-0.0016,-0.019,-0.0275,-0.0411,0.0123,0.0093,0.0094,0.0094,0.0095,0.0095,0.0832,0.0883,0.0976,0.1096,0.1223,0.1409,0.1548,0.1715,0.1918,0.2114,0.2089,0.2132,0.168,0.1024,0.0621,-0.0005,-0.0035,-0.0174,-0.0298,-0.0356,-0.045,0.0075,-0.0013,-0.0013,-0.0014,-0.0014,-0.0014,0,0.0885,0.0947,0.1055,0.1216,0.1375,0.1436,0.169,0.1852,0.21,0.2255,0.2342,0.224,0.1612,0.1007,0.0156,-0.0319,-0.0515,-0.057,-0.0669,-0.0734,-0.026,-0.0248,-0.0386,-0.0386,-0.0386,-0.0386,-0.0385,-0.0385,0.0917,0.1018,0.1077,0.1339,0.146,0.1705,0.1867,0.208,0.2262,0.2506,0.2618,0.2654,0.2377,0.0708,-0.0353,-0.0661,-0.1009,-0.1096,-0.1258,-0.0925,-0.0897,-0.087,-0.0882,-0.1151,-0.1152,-0.1655,-0.1661,-0.1665]}],[{"header":{"parameterUnit":"m.s-1","parameterCategory":2,"la1":30.2991,"la2":30.254,"lo1":-89.0895,"lo2":-89.0444,"dy":0.0017,"dx":0.0017,"nx":28,"ny":28,"refTime":"2024-07-09T09:00:00:Z","depth":"2","parameterNumber":2,"parameterNumberName":"U-component_of_CURRENTS"},"data":[0,0,0,0,0,0,0,0,0,0,0,0,0,0,0,0,0,0,0,0,0,0,0,0,0,0,0,0,0,0,0,0,0,0,0,0,0,0,0,0,0,0,0,0,0,0,0,0,0,0,0,0,0,0,0,0,0,0,0.2828,0.2828,0,0.2792,0.2791,0.279,0.2749,0.2749,0.2748,0.2748,0.2749,0.275,0.275,0,0,0,0,0,0,0,0,0,0,0,0,0,0.2821,0.2821,0.2828,0.2828,0.2828,0.2792,0.2791,0.279,0.2749,0.2749,0.2748,0.2748,0.2749,0.2749,0.275,0,0,0,0,0,0,0,0,0,0,0,0,0,0.2804,0.2821,0.2828,0.2806,0.2804,0.2792,0.2791,0.279,0.2749,0.2749,0.2748,0.2748,0.2749,0.2749,0.275,0.2757,0,0,0.2751,0.2751,0,0,0,0,0,0,0,0,0.2805,0.2804,0.281,0.2808,0.2806,0.2779,0.2789,0.2783,0.2749,0.2765,0.2748,0.2748,0.2766,0.2765,0.2751,0.2757,0.2757,0.2751,0.2751,0.2751,0.2751,0,0,0,0,0,0,0,0.2806,0.2805,0.2809,0.281,0.2807,0.2786,0.2783,0.2787,0.2764,0.2763,0.2762,0.2765,0.2764,0.2751,0.2751,0.2757,0.2751,0.2751,0.2751,0.2751,0.2859,0.2862,0,0,0,0,0,0,0.2823,0.2806,0.281,0.2808,0.281,0.2786,0.2783,0.2784,0.2763,0.2761,0.2766,0.2764,0.2751,0.2751,0.2751,0.2861,0.2751,0.2751,0.2751,0.2856,0.286,0.2863,0,0,0,0,0,0,0.2823,0.2823,0.2811,0.281,0.2808,0.2788,0.2788,0.2783,0.2786,0.2766,0.2763,0.2776,0.275,0.2751,0.2773,0.2857,0.2751,0.2752,0.2853,0.2857,0.2861,0.3016,0,0,0,0,0,0,0.2823,0.2824,0.2837,0.2811,0.2809,0.2828,0.2789,0.2783,0.279,0.2787,0.2774,0.2772,0.275,0.2773,0.2774,0.2855,0.2752,0.285,0.2855,0.286,0.3007,0.3024,0.3039,0,0,0,0,0,0.2823,0.2842,0.2838,0.2839,0.2825,0.283,0.2826,0.2807,0.2792,0.2805,0.2792,0.2773,0.2806,0.2775,0.2775,0.2859,0.2847,0.2854,0.2859,0.3,0.3021,0.3039,0,0,0,0,0,0,0.2838,0.2839,0.2834,0.2851,0.2853,0.2825,0.2837,0.2823,0.282,0.2822,0.2792,0.2791,0.2852,0.2824,0.279,0.2904,0.2831,0.2837,0.2938,0.2957,0.2973,0.3006,0.2752,0,0,0,0,0,0.2852,0.2868,0.2864,0.2877,0.2885,0.2865,0.2867,0.2858,0.285,0.2847,0.2835,0.2839,0.2875,0.2888,0.2898,0.2948,0.297,0.3006,0.3022,0.3036,0.3063,0.3167,0.3196,0.2882,0.2882,0.2882,0,0,0.2857,0.2864,0.287,0.2883,0.288,0.2909,0.2865,0.2881,0.2917,0.2851,0.2891,0.2893,0.2899,0.2963,0.299,0.2952,0.3139,0.3043,0.3056,0.3075,0.3176,0.3207,0.3235,0.2886,0.2886,0.2885,0,0,0.2891,0.289,0.2924,0.2936,0.2954,0.2948,0.2963,0.2954,0.2968,0.2995,0.2987,0.3037,0.3039,0.309,0.3111,0.3221,0.3221,0.3225,0.3336,0.3437,0.3465,0.3489,0.3568,0.3598,0.3232,0.3233,0.3233,0,0.2911,0.2952,0.2934,0.2975,0.3012,0.2976,0.3039,0.3037,0.3038,0.3082,0.3026,0.3117,0.3113,0.3252,0.3288,0.3266,0.3306,0.3263,0.3462,0.3486,0.3508,0.3584,0.3615,0.3241,0.324,0.3239,0.3238,0,0.2966,0.3014,0.3036,0.3085,0.3114,0.3159,0.3172,0.3195,0.3195,0.3209,0.3319,0.3313,0.3378,0.3395,0.3369,0.3549,0.3522,0.3473,0.3418,0.355,0.362,0.365,0.3253,0.325,0.3247,0.3245,0,0,0.3007,0.3071,0.3086,0.3146,0.3193,0.3224,0.3293,0.3374,0.3439,0.3442,0.3559,0.3619,0.362,0.3646,0.3648,0.3726,0.3912,0.3672,0.3673,0.3761,0.4139,0.3984,0.4,0.3902,0.3907,0.3912,0.4128,0,0.3083,0.3188,0.3206,0.3324,0.3396,0.3408,0.3478,0.3537,0.357,0.3652,0.37,0.3787,0.3718,0.3767,0.3846,0.389,0.3997,0.3858,0.3988,0.3993,0.3848,0.4032,0.3666,0.3816,0.4157,0.4162,0.4165,0,0.3159,0.3231,0.336,0.3486,0.3519,0.3574,0.3707,0.3764,0.386,0.3889,0.3982,0.3993,0.4134,0.4033,0.4215,0.4128,0.4167,0.4183,0.4191,0.4015,0.3894,0.3736,0.3856,0.4215,0.4211,0.4207,0.4204,0,0.3221,0.3354,0.3471,0.3508,0.3618,0.3695,0.3758,0.3852,0.3906,0.4057,0.4105,0.4248,0.4314,0.4398,0.4402,0.434,0.4573,0.4487,0.4401,0.439,0.4087,0.4038,0.4661,0.4661,0.466,0.466,0.4659,0,0.331,0.3421,0.3508,0.3563,0.3702,0.3774,0.3898,0.397,0.4073,0.4142,0.4239,0.431,0.4406,0.4506,0.4516,0.4549,0.4677,0.4476,0.4459,0.4127,0.4081,0.4412,0.4381,0.4668,0.4666,0.4664,0.4663,0,0.337,0.3435,0.3561,0.3681,0.3725,0.3823,0.3925,0.398,0.411,0.4208,0.4262,0.4404,0.4518,0.4595,0.4734,0.4673,0.4731,0.4716,0.4306,0.4235,0.4458,0.4432,0.4669,0.4666,0.4664,0.4661,0.4659,0,0.3422,0.3481,0.3588,0.363,0.3691,0.3811,0.385,0.3977,0.4019,0.4223,0.426,0.4438,0.4452,0.4613,0.4576,0.4615,0.4716,0.4319,0.4128,0.4512,0.4472,0.4449,0.4427,0.3804,0.3795,0.3788,0.3782,0,0.3479,0.3491,0.3547,0.3599,0.3662,0.3732,0.3817,0.3851,0.3983,0.4047,0.4135,0.4183,0.431,0.4158,0.4235,0.4199,0.4272,0.4172,0.4744,0.3829,0.3706,0.3661,0.3667,0.3719,0.3725,0.373,0.3733,0.3736,0.3483,0.349,0.3483,0.3543,0.3586,0.3611,0.3613,0.3648,0.3675,0.368,0.3862,0.3787,0.3848,0.3717,0.3649,0.3635,0.391,0.3759,0.3778,0.3805,0.3638,0.3513,0.346,0.3465,0.3469,0.3472,0.3475,0,0.3373,0.338,0.3416,0.3425,0.3382,0.3477,0.3516,0.3395,0.33,0.338,0.3341,0.3047,0.2975,0.3078,0.2941,0.2969,0.2906,0.2872,0.2766,0.2833,0.2892,0.2673,0.2242,0.2238,0.2235,0.2231,0,0,0.3321,0.3256,0.3247,0.317,0.3194,0.3045,0.3038,0.2881,0.2848,0.2673,0.2617,0.2762,0.2949,0.2521,0.251,0.2364,0.2567,0.2266,0.3261,0.3203,0.3255,0.3419,0.3161,0,0,0,0,0]},{"header":{"parameterUnit":"m.s-1","parameterCategory":2,"la1":30.2991,"la2":30.254,"lo1":-89.0895,"lo2":-89.0444,"dy":0.0017,"dx":0.0017,"nx":28,"ny":28,"refTime":"2024-07-09T09:00:00:Z","depth":"2","parameterNumber":3,"parameterNumberName":"V-component_of_CURRENTS"},"data":[0,0,0,0,0,0,0,0,0,0,0,0,0,0,0,0,0,0,0,0,0,0,0,0,0,0,0,0,0,0,0,0,0,0,0,0,0,0,0,0,0,0,0,0,0,0,0,0,0,0,0,0,0,0,0,0,0,0,0.0174,0.0173,0,0.0076,0.0075,0.0073,0.0011,0.0011,0.0011,0.0011,-0.0075,-0.0077,-0.008,0,0,0,0,0,0,0,0,0,0,0,0,0,0.0201,0.0202,0.0174,0.0173,0.0172,0.0077,0.0075,0.0073,0.0011,0.0011,0.0011,0.0011,-0.0074,-0.0077,-0.008,0,0,0,0,0,0,0,0,0,0,0,0,0,0.0151,0.0202,0.0174,0.0133,0.0129,0.0077,0.0075,0.0073,0.0011,0.0011,0.0011,0.0012,-0.0073,-0.0077,-0.008,-0.0103,0,0,-0.0091,-0.0092,0,0,0,0,0,0,0,0,0.0155,0.015,0.014,0.0136,0.0131,0.006,0.0053,0.0016,0.0011,0.0051,0.0011,0.0012,-0.0026,-0.0034,-0.0058,-0.0107,-0.011,-0.0091,-0.0093,-0.0095,-0.0096,0,0,0,0,0,0,0,0.0158,0.0153,0.0131,0.0139,0.0134,0.0084,0.0077,0.0045,0.0011,0.0048,0.0044,0.004,-0.0029,-0.0055,-0.0061,-0.0112,-0.0091,-0.0094,-0.0096,-0.0098,-0.0142,-0.0141,0,0,0,0,0,0,0.0184,0.0157,0.0134,0.0128,0.0148,0.0084,0.0076,0.0079,0.001,0.0001,0.004,0.0038,-0.0049,-0.0056,-0.0064,-0.0043,-0.0095,-0.0098,-0.01,-0.0143,-0.0142,-0.0141,0,0,0,0,0,0,0.0185,0.0184,0.0138,0.0143,0.0135,0.0085,0.0087,0.0077,0.0058,0.0005,-0.0005,0.0033,-0.0049,-0.0059,-0.0087,-0.0048,-0.01,-0.0103,-0.0144,-0.0143,-0.0142,-0.0034,0,0,0,0,0,0,0.0187,0.0185,0.0191,0.0146,0.0136,0.0117,0.0087,0.0075,0.0057,0.0053,-0.0004,-0.0013,-0.005,-0.0081,-0.009,-0.0054,-0.0106,-0.0145,-0.0144,-0.0142,-0.0038,-0.0029,-0.002,0,0,0,0,0,0.0188,0.0206,0.0192,0.0189,0.0148,0.0118,0.0107,0.0068,0.0057,0.005,0.0013,-0.0011,-0.0076,-0.0084,-0.0095,-0.0058,-0.0146,-0.0144,-0.0142,-0.0042,-0.0031,-0.0021,0,0,0,0,0,0,0.0218,0.02,0.0184,0.0194,0.0162,0.0109,0.0104,0.0077,0.0039,0.004,-0.0012,-0.0023,-0.0032,-0.0065,-0.0072,-0.0067,-0.011,-0.011,-0.003,-0.002,-0.0011,0.003,-0.0109,0,0,0,0,0,0.023,0.024,0.0204,0.021,0.0202,0.0153,0.0136,0.0111,0.0075,0.0058,0.0019,-0.0013,-0.0034,-0.0042,-0.0077,-0.0078,-0.0114,-0.0059,-0.0049,-0.0042,-0.0016,-0.005,-0.0041,-0.0134,-0.0134,-0.0134,0,0,0.0243,0.0234,0.0239,0.0217,0.0191,0.0187,0.0143,0.0127,0.0131,0.0056,0.005,0.0008,-0.0031,-0.0033,-0.0037,-0.0052,-0.0037,-0.0039,-0.0032,-0.001,-0.0047,-0.0038,-0.003,-0.0133,-0.0133,-0.0133,0,0,0.0278,0.0268,0.0288,0.0267,0.0241,0.0215,0.0218,0.0172,0.0162,0.0142,0.0101,0.0086,0.0039,0.003,0.0019,0.0057,0.0003,0.0047,0.0136,0.0103,0.011,0.0117,0.0073,0.0075,0.0062,0.0062,0.0062,0,0.029,0.0318,0.0285,0.0293,0.0297,0.0237,0.026,0.0234,0.0185,0.02,0.0157,0.0123,0.0077,0.0109,0.0119,0.0082,0.0045,0.0101,0.0116,0.0122,0.0126,0.008,0.008,0.0067,0.0067,0.0066,0.0066,0,0.0334,0.0355,0.0366,0.0367,0.036,0.0368,0.034,0.0337,0.0317,0.0297,0.0311,0.0244,0.0237,0.0218,0.0177,0.0208,0.0163,0.0123,0.0093,0.0143,0.0089,0.0088,0.0075,0.0073,0.0072,0.007,0,0,0.0361,0.0396,0.0397,0.0434,0.0409,0.0418,0.0437,0.0455,0.0496,0.0439,0.0494,0.0443,0.0413,0.0399,0.0351,0.0323,0.0305,0.0248,0.0243,0.0214,0.0223,0.0173,0.0166,0.0264,0.0264,0.0265,0.0169,0,0.0407,0.0473,0.0469,0.0532,0.0571,0.0546,0.0581,0.0586,0.0577,0.0603,0.0561,0.0573,0.0483,0.0489,0.0448,0.0344,0.0309,0.0335,0.0173,0.0168,0.0126,0.0166,0.0168,0.0082,0.0167,0.0167,0.0167,0,0.0445,0.0499,0.0583,0.0666,0.0682,0.0708,0.0781,0.0804,0.0818,0.0814,0.0811,0.0758,0.0733,0.0635,0.0499,0.0517,0.0388,0.0293,0.0286,0.0208,0.0117,0.0048,0.0076,0.0163,0.0164,0.0164,0.0164,0,0.0503,0.0578,0.0669,0.0685,0.0755,0.081,0.085,0.0879,0.0935,0.0954,0.099,0.0925,0.0911,0.0753,0.0548,0.0523,0.0377,0.0312,0.0148,0.0141,0.0099,0.0089,0.0215,0.0216,0.0216,0.0216,0.0216,0,0.0559,0.063,0.0713,0.076,0.088,0.0905,0.1021,0.1045,0.111,0.1202,0.1116,0.1157,0.0937,0.0821,0.061,0.0384,0.042,0.0181,0.0124,0.0134,0.0128,0.0163,0.0158,0.0212,0.0213,0.0214,0.0214,0,0.0603,0.0654,0.076,0.0867,0.0909,0.0996,0.1122,0.1209,0.1259,0.1376,0.1396,0.1333,0.1179,0.0939,0.0678,0.0479,0.0255,0.016,0.0182,0.0131,0.0022,0.0024,-0.0026,-0.0028,-0.003,-0.0032,-0.0033,0,0.0644,0.0706,0.0824,0.0892,0.0947,0.1075,0.1172,0.1266,0.1372,0.1487,0.1562,0.1462,0.1386,0.0988,0.0621,0.0257,0.0229,0.0031,-0.0017,0.0053,0.0002,0.0007,0.0011,-0.0042,-0.0043,-0.0045,-0.0045,0,0.0724,0.075,0.0827,0.0955,0.1071,0.1212,0.1368,0.1477,0.1619,0.1719,0.1817,0.1765,0.1391,0.1015,0.0525,0.0273,0.0087,-0.0005,0.0076,0.0022,0.003,-0.0017,-0.0011,-0.0055,-0.0054,-0.0053,-0.0053,-0.0053,0.077,0.0815,0.0903,0.1033,0.1168,0.136,0.1502,0.1652,0.1841,0.1982,0.1951,0.1864,0.1462,0.0799,0.0394,-0.0017,0.0007,-0.0147,-0.0141,-0.0134,-0.0115,-0.011,-0.0219,-0.0219,-0.0219,-0.0219,-0.0219,0,0.081,0.0871,0.0984,0.1151,0.1317,0.139,0.1646,0.1756,0.1966,0.2038,0.2065,0.167,0.125,0.0811,0.0194,-0.018,-0.0211,-0.0299,-0.0242,-0.023,-0.022,-0.0203,-0.0333,-0.0334,-0.0335,-0.0336,0,0,0.0836,0.0924,0.098,0.1258,0.1401,0.163,0.1793,0.1907,0.1997,0.2035,0.1993,0.1836,0.1356,0.0886,0.0382,0.0042,-0.0014,-0.0047,0.0081,0.022,0.0234,-0.0101,-0.0058,0,0,0,0,0]}],[{"header":{"parameterUnit":"m.s-1","parameterCategory":2,"la1":30.2991,"la2":30.254,"lo1":-89.0895,"lo2":-89.0444,"dy":0.0017,"dx":0.0017,"nx":28,"ny":28,"refTime":"2024-07-09T09:00:00:Z","depth":"4","parameterNumber":2,"parameterNumberName":"U-component_of_CURRENTS"},"data":[0,0,0,0,0,0,0,0,0,0,0,0,0,0,0,0,0,0,0,0,0,0,0,0,0,0,0,0,0,0,0,0,0,0,0,0,0,0,0,0,0,0,0,0,0,0,0,0,0,0,0,0,0,0,0,0,0,0,0.1406,0.1408,0,0.153,0.1532,0.1533,0.1638,0.1639,0.1641,0.1642,0.1707,0.1707,0.1708,0,0,0,0,0,0,0,0,0,0,0,0,0,0.1249,0.1251,0.1406,0.1408,0.141,0.153,0.1532,0.1533,0.1638,0.1639,0.1641,0.1643,0.1707,0.1707,0.1708,0,0,0,0,0,0,0,0,0,0,0,0,0,0.1336,0.1251,0.1406,0.1479,0.1487,0.153,0.1532,0.1533,0.1637,0.1639,0.1641,0.1643,0.1707,0.1707,0.1708,0.1669,0,0,0.171,0.171,0,0,0,0,0,0,0,0,0.1331,0.1342,0.1466,0.1474,0.1483,0.1573,0.15,0.1577,0.1637,0.1577,0.1642,0.1644,0.1657,0.1662,0.1677,0.1672,0.1675,0.171,0.171,0.171,0.1711,0,0,0,0,0,0,0,0.1325,0.1337,0.1453,0.1468,0.1478,0.1501,0.1516,0.1515,0.16,0.1582,0.1591,0.1609,0.1661,0.1676,0.1679,0.1676,0.171,0.171,0.1711,0.1711,0.1784,0.1786,0,0,0,0,0,0,0.1314,0.1331,0.1449,0.1457,0.1414,0.1503,0.1519,0.154,0.1602,0.1615,0.1607,0.1613,0.1674,0.1679,0.1682,0.183,0.171,0.1711,0.1711,0.1783,0.1785,0.1787,0,0,0,0,0,0,0.131,0.1323,0.1444,0.1399,0.1416,0.1504,0.1526,0.1541,0.1595,0.1622,0.1633,0.1649,0.1676,0.1681,0.171,0.1826,0.1711,0.1712,0.1781,0.1784,0.1786,0.2004,0,0,0,0,0,0,0.1305,0.1321,0.1344,0.1398,0.1419,0.1485,0.1525,0.1542,0.1601,0.1612,0.166,0.1667,0.1678,0.1709,0.1711,0.1825,0.1712,0.1779,0.1782,0.1785,0.1995,0.2014,0.203,0,0,0,0,0,0.1299,0.1329,0.1344,0.1359,0.1443,0.1486,0.1498,0.1565,0.1602,0.1621,0.1659,0.1668,0.1731,0.171,0.1712,0.183,0.1778,0.1781,0.1785,0.1987,0.201,0.203,0,0,0,0,0,0,0.1293,0.1344,0.1362,0.1412,0.1448,0.1505,0.1552,0.1577,0.1623,0.1646,0.1669,0.1677,0.1757,0.1727,0.1704,0.185,0.1763,0.1767,0.1916,0.1937,0.1955,0.1935,0.1713,0,0,0,0,0,0.1293,0.1321,0.1368,0.1409,0.1439,0.1493,0.1527,0.1558,0.1602,0.1629,0.167,0.1709,0.1763,0.1796,0.1814,0.1873,0.184,0.1949,0.1967,0.1982,0.1962,0.2037,0.2061,0.1798,0.1798,0.1798,0,0,0.1302,0.1335,0.1354,0.1407,0.1457,0.1514,0.1521,0.1578,0.1622,0.1622,0.1715,0.1761,0.1784,0.1878,0.1913,0.1879,0.2034,0.1987,0.2001,0.1971,0.2044,0.207,0.2093,0.1801,0.18,0.18,0,0,0.1321,0.137,0.1394,0.1421,0.1481,0.154,0.156,0.1628,0.1662,0.1718,0.1768,0.1862,0.1913,0.1989,0.2025,0.2125,0.2116,0.2159,0.2256,0.2333,0.2356,0.2376,0.2358,0.2374,0.2182,0.2182,0.2183,0,0.133,0.1375,0.1409,0.1436,0.1438,0.1561,0.1562,0.1654,0.1719,0.1773,0.1763,0.1935,0.1968,0.2122,0.2188,0.2176,0.2182,0.2196,0.2362,0.2381,0.2398,0.2374,0.239,0.2193,0.2192,0.2191,0.219,0,0.1347,0.1399,0.143,0.1506,0.1496,0.1551,0.1618,0.1752,0.1825,0.1889,0.2024,0.2069,0.2195,0.2241,0.2256,0.243,0.2382,0.2376,0.2324,0.2439,0.2404,0.2417,0.2209,0.2205,0.2202,0.2199,0,0,0.135,0.1425,0.1448,0.1464,0.1518,0.1537,0.1673,0.1812,0.1984,0.2057,0.2194,0.2319,0.2397,0.2435,0.2493,0.2555,0.2701,0.2542,0.2541,0.2545,0.2826,0.2604,0.2594,0.2764,0.2768,0.2771,0.2751,0,0.1374,0.1398,0.1414,0.1484,0.1487,0.161,0.1757,0.1887,0.2005,0.2221,0.2311,0.2468,0.2458,0.2573,0.2643,0.2692,0.2746,0.2701,0.2689,0.2685,0.2497,0.2606,0.2782,0.276,0.2763,0.2765,0.2766,0,0.1361,0.1384,0.1385,0.1479,0.1507,0.1615,0.1835,0.1942,0.2266,0.2369,0.2536,0.2636,0.2802,0.2756,0.2866,0.2855,0.2862,0.2848,0.2848,0.2564,0.2487,0.2617,0.2787,0.2786,0.2784,0.2783,0.2781,0,0.1257,0.1356,0.1356,0.1369,0.154,0.1646,0.1774,0.202,0.215,0.2466,0.2607,0.2801,0.2902,0.2961,0.2981,0.2969,0.3029,0.3008,0.2782,0.2763,0.2873,0.2852,0.3068,0.3068,0.3068,0.3068,0.3068,0,0.1192,0.1181,0.1381,0.1402,0.1515,0.159,0.1785,0.1998,0.2302,0.2445,0.2675,0.2786,0.2968,0.3039,0.3034,0.2929,0.3087,0.2789,0.2762,0.2958,0.2947,0.2881,0.2859,0.3067,0.3067,0.3067,0.3067,0,0.0924,0.108,0.1109,0.1368,0.1453,0.1483,0.1739,0.1923,0.2235,0.2413,0.2532,0.2827,0.2896,0.2997,0.3066,0.2951,0.2909,0.2836,0.3,0.2983,0.2565,0.2555,0.2563,0.2556,0.2549,0.2544,0.2539,0,0.0748,0.079,0.103,0.11,0.1206,0.1342,0.1495,0.1832,0.1921,0.236,0.2379,0.2653,0.2785,0.271,0.2811,0.2792,0.2754,0.2703,0.2656,0.2549,0.2523,0.2523,0.2522,0.2529,0.2528,0.2526,0.2524,0,0.0458,0.0613,0.0679,0.0859,0.1006,0.1108,0.1278,0.1397,0.1774,0.2051,0.2265,0.2434,0.2483,0.2552,0.2584,0.2552,0.2729,0.2634,0.2646,0.2602,0.2508,0.2489,0.2495,0.2502,0.2505,0.2507,0.2508,0,0.0288,0.0264,0.0515,0.0613,0.0786,0.0913,0.1006,0.1202,0.1418,0.1895,0.1915,0.222,0.2439,0.2419,0.2422,0.2415,0.2351,0.2256,0.2287,0.2312,0.2239,0.2084,0.1925,0,0,0,0,0,0.021,0.0221,0.0277,0.0443,0.0599,0.0729,0.0932,0.1059,0.1385,0.1472,0.1752,0.1831,0.2008,0.2112,0.2045,0.2204,0.2294,0.2105,0.2183,0.2378,0.2404,0.234,0,0,0,0,0,0,0.0181,0.0213,0.0219,0.033,0.0435,0.0596,0.0756,0.0941,0.0981,0.1325,0.1399,0.166,0.179,0.2038,0.2003,0.2024,0.2016,0.226,0.2252,0.2363,0.2387,0.2408,0.2351,0,0,0,0,0]},{"header":{"parameterUnit":"m.s-1","parameterCategory":2,"la1":30.2991,"la2":30.254,"lo1":-89.0895,"lo2":-89.0444,"dy":0.0017,"dx":0.0017,"nx":28,"ny":28,"refTime":"2024-07-09T09:00:00:Z","depth":"4","parameterNumber":3,"parameterNumberName":"V-component_of_CURRENTS"},"data":[0,0,0,0,0,0,0,0,0,0,0,0,0,0,0,0,0,0,0,0,0,0,0,0,0,0,0,0,0,0,0,0,0,0,0,0,0,0,0,0,0,0,0,0,0,0,0,0,0,0,0,0,0,0,0,0,0,0,-0.0016,-0.0016,0,-0.0055,-0.0056,-0.0056,-0.0084,-0.0084,-0.0084,-0.0084,-0.0147,-0.0148,-0.015,0,0,0,0,0,0,0,0,0,0,0,0,0,-0.0016,-0.0016,-0.0016,-0.0016,-0.0016,-0.0055,-0.0056,-0.0056,-0.0084,-0.0084,-0.0084,-0.0084,-0.0146,-0.0148,-0.015,0,0,0,0,0,0,0,0,0,0,0,0,0,-0.0034,-0.0016,-0.0016,-0.0033,-0.0035,-0.0055,-0.0056,-0.0057,-0.0084,-0.0084,-0.0084,-0.0084,-0.0146,-0.0148,-0.015,-0.0166,0,0,-0.0158,-0.0159,0,0,0,0,0,0,0,0,-0.0033,-0.0034,-0.003,-0.0032,-0.0034,-0.0063,-0.0079,-0.0093,-0.0084,-0.0068,-0.0084,-0.0084,-0.0119,-0.0124,-0.0134,-0.0169,-0.0171,-0.0158,-0.016,-0.0161,-0.0161,0,0,0,0,0,0,0,-0.0032,-0.0033,-0.0034,-0.003,-0.0033,-0.0056,-0.0059,-0.0082,-0.0096,-0.007,-0.0071,-0.0072,-0.0121,-0.0132,-0.0136,-0.0172,-0.0158,-0.016,-0.0162,-0.0163,-0.0208,-0.0208,0,0,0,0,0,0,-0.0019,-0.0031,-0.0033,-0.0035,-0.0031,-0.0056,-0.0059,-0.0055,-0.0095,-0.01,-0.0072,-0.0073,-0.0128,-0.0133,-0.0138,-0.0147,-0.0161,-0.0163,-0.0164,-0.0209,-0.0208,-0.0208,0,0,0,0,0,0,-0.0019,-0.0019,-0.0031,-0.0032,-0.0035,-0.0055,-0.0052,-0.0056,-0.0066,-0.0096,-0.0102,-0.0076,-0.0128,-0.0135,-0.0157,-0.015,-0.0164,-0.0166,-0.0209,-0.0209,-0.0208,-0.0172,0,0,0,0,0,0,-0.0019,-0.0018,-0.0016,-0.0031,-0.0035,-0.004,-0.0052,-0.0057,-0.0065,-0.0067,-0.0102,-0.0108,-0.0128,-0.0153,-0.0159,-0.0154,-0.0168,-0.0209,-0.0209,-0.0208,-0.0174,-0.0171,-0.0168,0,0,0,0,0,-0.0018,-0.0014,-0.0015,-0.0016,-0.0029,-0.004,-0.0044,-0.006,-0.0065,-0.007,-0.0092,-0.0107,-0.0154,-0.0155,-0.0162,-0.0158,-0.021,-0.0209,-0.0208,-0.0175,-0.0171,-0.0168,0,0,0,0,0,0,-0.0014,-0.0017,-0.0019,-0.0015,-0.0024,-0.0043,-0.0048,-0.0058,-0.0079,-0.0082,-0.0109,-0.0117,-0.0136,-0.015,-0.015,-0.0168,-0.0182,-0.0183,-0.0154,-0.0151,-0.0148,-0.0131,-0.017,0,0,0,0,0,-0.001,-0.0008,-0.0015,-0.0012,-0.0014,-0.003,-0.0037,-0.0047,-0.0065,-0.0074,-0.0095,-0.0117,-0.0139,-0.0147,-0.0172,-0.0182,-0.0209,-0.0181,-0.0178,-0.0176,-0.0167,-0.0203,-0.0203,-0.0206,-0.0206,-0.0206,0,0,-0.0009,-0.0009,-0.0008,-0.0011,-0.002,-0.0022,-0.0035,-0.0043,-0.0047,-0.0078,-0.0091,-0.0114,-0.0142,-0.0156,-0.0164,-0.0165,-0.0192,-0.0175,-0.0172,-0.0165,-0.0202,-0.0202,-0.0202,-0.0206,-0.0206,-0.0206,0,0,0.0002,-0.0002,0.0007,-0.0002,-0.0008,-0.0018,-0.0016,-0.0032,-0.0041,-0.0056,-0.0078,-0.0095,-0.0126,-0.0141,-0.0153,-0.0148,-0.0182,-0.0152,-0.0117,-0.0153,-0.0153,-0.0153,-0.02,-0.0205,-0.0142,-0.0142,-0.0142,0,0.0003,0.002,0.0006,0.0009,-0.0006,-0.0012,-0.0018,-0.002,-0.0042,-0.004,-0.0056,-0.009,-0.012,-0.0125,-0.0124,-0.0142,-0.0169,-0.0129,-0.0149,-0.015,-0.0151,-0.0199,-0.0205,-0.014,-0.0141,-0.0141,-0.0141,0,0.0023,0.0031,0.0034,0.0036,0.0008,0.0011,-0.0007,0.0007,-0.0004,-0.0016,-0.0027,-0.0063,-0.007,-0.0089,-0.0108,-0.0117,-0.0138,-0.0149,-0.0158,-0.0149,-0.02,-0.0207,-0.0138,-0.0139,-0.0139,-0.0139,0,0,0.0044,0.0051,0.005,0.0065,0.0021,0.002,0.0015,0.0018,0.0048,0.002,0.0036,-0.001,-0.0012,-0.0025,-0.0047,-0.0081,-0.0125,-0.0109,-0.0112,-0.0155,-0.0211,-0.0199,-0.0206,-0.0137,-0.0138,-0.0138,-0.0249,0,0.0071,0.012,0.0063,0.0078,0.0111,0.0065,0.0063,0.0055,0.0049,0.0075,0.0047,0.0047,0.0008,0.0017,-0.0023,-0.0094,-0.0138,-0.0094,-0.0214,-0.0217,-0.0207,-0.0211,-0.014,-0.0254,-0.0256,-0.0257,-0.0258,0,0.0099,0.0149,0.0186,0.0164,0.0158,0.0143,0.0153,0.0129,0.0145,0.0146,0.0145,0.013,0.0103,0.0064,-0.0053,-0.002,-0.0108,-0.0178,-0.0184,-0.0186,-0.0217,-0.0263,-0.0271,-0.027,-0.0269,-0.0268,-0.0267,0,0.0183,0.0199,0.025,0.0247,0.0241,0.0233,0.0189,0.0174,0.0194,0.0197,0.0231,0.0184,0.018,0.0072,-0.0047,-0.0051,-0.0194,-0.0218,-0.0298,-0.03,-0.0294,-0.0292,-0.0314,-0.0314,-0.0313,-0.0313,-0.0313,0,0.0235,0.0272,0.0325,0.0358,0.0424,0.0317,0.0342,0.0323,0.0312,0.0341,0.0277,0.0308,0.0182,0.0105,-0.0028,-0.0173,-0.0178,-0.0293,-0.0322,-0.0278,-0.0273,-0.03,-0.0297,-0.0317,-0.0316,-0.0315,-0.0315,0,0.0306,0.0345,0.0433,0.0465,0.0476,0.0512,0.0457,0.0503,0.0438,0.0481,0.0494,0.0421,0.0295,0.0154,-0.0032,-0.0137,-0.0288,-0.0345,-0.0288,-0.0312,-0.0383,-0.0377,-0.0447,-0.0448,-0.0448,-0.0448,-0.0449,0,0.0357,0.0428,0.0532,0.0614,0.0628,0.0664,0.0704,0.0626,0.0607,0.055,0.0559,0.0485,0.0421,0.0171,-0.0014,-0.0263,-0.0302,-0.0389,-0.0387,-0.0372,-0.0394,-0.0388,-0.0381,-0.0449,-0.0449,-0.0449,-0.045,0,0.0452,0.0492,0.055,0.0734,0.0823,0.09,0.0864,0.0863,0.075,0.0765,0.0669,0.056,0.0407,0.0195,0.0007,-0.0179,-0.0333,-0.0393,-0.0394,-0.0394,-0.0375,-0.0395,-0.0389,-0.0451,-0.045,-0.045,-0.045,0,0.049,0.0572,0.0653,0.078,0.0968,0.1028,0.0998,0.0927,0.0906,0.0766,0.0758,0.0595,0.0509,0.0236,0.0058,-0.0112,-0.0169,-0.0233,-0.0244,-0.0245,-0.0153,-0.0097,-0.0109,0,0,0,0,0,0.052,0.0556,0.0679,0.0788,0.0985,0.1051,0.1074,0.1003,0.0905,0.088,0.0793,0.0658,0.0412,0.0278,0.0114,0.0013,-0.0226,-0.0191,-0.0311,-0.0457,-0.0456,-0.038,0,0,0,0,0,0,0.0525,0.0624,0.0642,0.0792,0.0868,0.1025,0.1059,0.0983,0.0873,0.0796,0.0661,0.0617,0.0359,0.0527,0.0117,0.006,-0.0042,-0.0308,-0.0312,-0.0458,-0.0457,-0.0455,-0.0377,0,0,0,0,0]}]]